Orbital Elements at Epoch 2459200.5 (2020-Dec-17.0) TDB
Reference: JPL 15 (heliocentric ecliptic J2000)
Element | Value | Uncertainty (1-sigma) | Units |
e | .2272519609746425 | 4.7425e-08 | |
a | 2.389128246702056 | 9.5299e-09 | au |
q | 1.846194167619105 | 1.1512e-07 | au |
i | 1.839156701414329 | 4.661e-06 | deg |
node | 185.140196735105 | 0.00013054 | deg |
peri | 132.6988237805366 | 0.00013091 | deg |
M | 324.9331199271421 | 9.7667e-06 | deg |
tp | 2459331.886955320297 (2021-Apr-27.38695532) | 3.6999e-05 | TDB |
period | 1348.831256645413 3.69 | 8.0705e-06 2.21e-08 | d yr |
n | .2668977295909731 | 1.5969e-09 | deg/d |
Q | 2.932062325785008 | 1.1696e-08 | au |
|
| | Orbit Determination Parameters
Additional Information
|